Weather observations for the past three days for
Warrenton-Fauquier Airport
Metric (Imperial)
Date Time (edt) Wind (kph) Vis. (km) Weather Sky Cond. Temperature (ºC) Relative Humidity Wind Chill (°C) Heat Index (°C) Pressure Precipitation (cm)
Air Dwpt 6 hour altimeter (cm) sea level (mb) 1 hr 3 hr 6 hr
Max. Min.
03 23:15 Calm 3.22 Fog/Mist SCT001 26.3 24.7 91% 29 76.12 0.0
03 22:55 Calm 16.09 Thunderstorm SCT012 SCT038 SCT070 26.8 25.2 91% 30 76.07 0.0 0.1 0.1
03 22:35 S 7 4.83 Heavy Rain SCT038 SCT070 SCT080 26.1 24.5 91% 28 76.1 0.0 0.1
03 22:15 Calm 16.09 Fair CLR 25.3 23.7 91% 26 76.12 0.0
03 21:55 Calm 11.27 Fair CLR 25.5 24 91% 27 76.12 0.0
03 21:35 Calm 11.27 Fair CLR 25.5 24 91% 27 76.1 0.0
03 21:15 Calm 8.05 Fog/Mist CLR 25.7 24.1 91% 27 76.1 0.0
03 20:55 Calm 11.27 Fair CLR 25.9 24.3 91% 28 76.12 0.0
03 20:35 Calm 11.27 Fair CLR 26.2 24.5 90% 29 76.12 0.0
03 20:15 Calm 16.09 Fair CLR 26.5 25 92% 29 76.15 0.0
03 19:55 Calm 16.09 Fair CLR 27 25.5 32.3 27 92% 31 76.15 0.0
03 19:35 Calm 16.09 Fair CLR 27.7 25.8 89% 33 76.1 0.0
03 19:15 Calm 16.09 Fair CLR 29.4 24.4 75% 35 76.1 0.0
03 18:55 Calm 16.09 Fair CLR 30.6 23.7 67% 36 76.1 0.0
03 18:35 Calm 16.09 Fair CLR 30.5 23.6 67% 35 76.07 0.0
03 18:15 SW 7 16.09 Fair CLR 30.6 23.4 65% 35 76.07 0.0
03 17:55 SW 7 16.09 Fair CLR 32.1 23.3 60% 37 76.07 0.0
03 17:35 SW 9 16.09 Fair CLR 32.1 23 59% 37 76.07 0.0
03 17:15 SW 15 16.09 Fair CLR 32.1 22.9 58% 37 76.1 0.0
03 16:55 SW 13 16.09 Fair CLR 31.9 22.8 59% 36 76.1 0.0
03 16:35 S 13 16.09 Fair CLR 31.7 23.2 61% 37 76.12 0.0
03 16:15 S 7 16.09 Fair CLR 32.3 23.2 59% 37 76.15 0.0
03 15:55 S 6 16.09 Fair CLR 32 23 59% 37 76.17 0.0
03 15:35 S 6 16.09 Fair CLR 31.4 23.4 63% 36 76.2 0.0
03 15:15 S 7 16.09 Fair CLR 30.8 23.7 66% 36 76.23 0.0
03 14:55 S 11 16.09 Fair CLR 30.2 23.8 69% 35 76.25 0.0
03 14:35 Calm 16.09 Fair CLR 29.3 23.4 71% 34 76.25 0.0
03 14:15 S 6 16.09 Fair CLR 29.3 23.2 70% 33 76.25 0.0
03 13:55 Calm 16.09 Fair CLR 29.2 23.1 29.6 23 70% 33 76.25 0.0
03 13:35 Calm 16.09 Fair CLR 28.7 22.6 70% 32 76.33 0.0
03 13:15 Calm 16.09 Fair CLR 28.8 22.9 70% 32 76.33 0.0
03 12:55 NW 6 16.09 Fair CLR 29.5 22.3 65% 33 76.35 0.0
03 12:35 NE 9 16.09 Fair CLR 28.6 23 72% 32 76.38 0.0
03 12:15 N 6 16.09 Fair CLR 28.1 22.5 72% 31 76.38 0.0
03 11:55 SE 6 16.09 Fair CLR 28.3 22.9 73% 32 76.38 0.0
03 11:35 Calm 16.09 Fair CLR 27.2 22 73% 30 76.38 0.0
03 11:15 Calm 16.09 Fair CLR 26.8 22.2 76% 29 76.38 0.0
03 10:55 Calm 16.09 Fair CLR 26.7 22.3 77% 29 76.4 0.0
03 10:35 Calm 16.09 Fair CLR 25.7 22.9 85% 27 76.35 0.0
03 10:15 E 6 16.09 Fair CLR 25.1 23 88% 26 76.35 0.0
03 09:55 SE 6 16.09 Fair CLR 24.2 22.6 91% 24 76.35 0.0
03 09:35 N 7 16.09 Partly Cloudy SCT005 23.9 22.3 91% 23 76.38 0.0
03 09:15 NE 7 11.27 Partly Cloudy SCT005 23.6 22 91% 76.4 0.0
03 08:55 NE 9 8.05 Fog/Mist BKN003 23.4 21.8 91% 76.43 0.0
03 08:35 N 11 4.83 Fog/Mist OVC003 23.4 21.9 91% 76.43 0.0
03 08:15 NE 7 6.44 Fog/Mist OVC003 23.2 21.7 91% 76.43 0.0
03 07:55 N 11 3.22 Fog/Mist OVC003 23 21.4 23 21 91% 76.43 0.0
03 07:35 N 13 0.40 Fog OVC003 22.9 21.4 91% 76.38 0.0
03 07:15 Calm 0.24 Fog OVC003 22.6 21.1 91% 76.33 0.0
03 06:55 Calm 0.24 Fog OVC003 22.5 20.9 91% 76.3 0.0
03 06:35 Calm 0.40 Fog OVC003 22.4 20.8 91% 76.28 0.0
03 06:15 Calm 0.40 Fog OVC003 22.3 20.8 91% 76.28 0.0
03 05:55 Calm 0.40 Fog OVC003 22.5 21 91% 76.28 0.0
03 05:35 Calm 1.21 Fog/Mist OVC003 22.5 21 91% 76.28 0.0
03 05:15 Calm 3.22 Fog/Mist OVC003 22.5 20.9 91% 76.28 0.0
03 04:55 Calm 2.41 Fog/Mist OVC003 22.5 20.8 90% 76.28 0.0
03 04:35 Calm 11.27 Overcast OVC003 22.2 20.7 91% 76.28 0.0
03 04:15 Calm 8.05 Fog/Mist BKN003 21.3 19.8 91% 76.28 0.0
03 03:55 Calm 8.05 Fog/Mist CLR 21.5 20 91% 76.28 0.0
03 03:35 Calm 2.41 Fog/Mist VV007 21.5 19.9 91% 76.25 0.0
03 03:15 Calm 4.02 Fog/Mist CLR 21.8 20.3 91% 76.25 0.0
03 02:55 Calm 4.83 Fog/Mist CLR 21.9 20.3 91% 76.25 0.0
03 02:35 Calm 16.09 Fair CLR 22.5 21 91% 76.28 0.0
03 02:15 Calm 16.09 Fair CLR 22 20.5 91% 76.28 0.0
03 01:55 Calm 16.09 Fair CLR 22.1 20.5 23.3 21.2 91% 76.3 0.0
03 01:35 Calm 16.09 Fair CLR 22 20.4 91% 76.33 0.0
03 01:15 E 6 16.09 Fair CLR 21.9 20.3 91% 76.33 0.0
03 00:55 SE 6 11.27 Fair CLR 21.6 20.1 91% 76.3 0.0
03 00:35 Calm 4.83 Fog/Mist CLR 21.7 20.1 91% 76.3 0.0
03 00:15 SE 6 11.27 Fair CLR 21.7 20.1 91% 76.33 0.0
02 23:55 Calm 6.44 Fog/Mist CLR 21.4 19.9 91% 76.33 0.0
02 23:35 Calm 6.44 Fog/Mist CLR 21.5 19.9 91% 76.33 0.0
02 23:15 Calm 8.05 Fog/Mist CLR 21.5 20 91% 76.33 0.0
02 22:55 Calm 11.27 Fair CLR 21.8 20.2 91% 76.33 0.0
02 22:35 Calm 11.27 Fair CLR 21.8 20.3 91% 76.3 0.0
02 22:15 S 6 16.09 Partly Cloudy SCT001 22 20.5 91% 76.3 0.0
02 21:55 Calm 2.01 Fog/Mist SCT001 22 20.5 91% 76.33 0.0
02 21:35 Calm 11.27 Fair CLR 22 20.5 91% 76.33 0.0
02 21:15 Calm 16.09 Fair CLR 22.5 20.9 91% 76.33 0.0
02 20:55 Calm 8.05 Fog/Mist CLR 22.3 20.8 91% 76.35 0.0
02 20:35 Calm 16.09 Fair CLR 22.7 21.2 91% 76.35 0.0
02 20:15 Calm 16.09 Fair CLR 23 21.5 91% 76.35 0.0
02 19:55 Calm 16.09 Fair CLR 23.3 21.8 91% 76.35 0.0
02 19:35 Calm 16.09 Fair CLR 23.5 22 91% 76.35 0.0
02 19:15 Calm 16.09 Fair CLR 23.7 22.1 91% 76.35 0.0
02 18:55 Calm 16.09 Fair CLR 24 22.3 90% 24 76.38 0.0
02 18:35 Calm 16.09 Fair CLR 24.7 23.1 91% 25 76.4 0.0
02 18:15 Calm 16.09 Partly Cloudy SCT003 25.4 23.5 89% 27 76.35 0.0
02 17:55 Calm 11.27 NULL NULL 24.4 22.8 91% 24 76.35 0.0
02 15:35 E 39 G 48 4.02 Thunderstorm Heavy Rain and Breezy SCT011 SCT032 SCT046 26.1 22.2 79% 28 76.5 0.0 0.2
02 15:15 NE 28 G 41 16.09 Thunderstorm in Vicinity CLR 32.8 20.6 49% 36 76.38 0.0
02 14:55 E 15 16.09 Thunderstorm in Vicinity CLR 34.5 22.1 48% 39 76.33 0.0
02 14:35 NE 9 16.09 Fair CLR 34.7 20.4 43% 38 76.35 0.0
02 14:15 E 9 16.09 Fair CLR 34.2 20.9 46% 37 76.35 0.0
02 13:55 SE 6 16.09 Fair CLR 34.1 20.9 34.8 24.4 46% 37 76.38 0.0
02 13:35 NE 6 16.09 Fair CLR 34.6 19.9 42% 37 76.38 0.0
02 13:15 Calm 16.09 Fair CLR 34.4 20 43% 37 76.4 0.0
02 12:55 Calm 16.09 Fair CLR 33.2 19.7 45% 35 76.43 0.0
02 12:35 Calm 16.09 Fair CLR 33.1 20.2 47% 36 76.43 0.0
02 12:15 Calm 16.09 Fair CLR 33.2 20 46% 36 76.43 0.0
02 11:55 Calm 16.09 Fair CLR 31.9 20.2 50% 34 76.43 0.0
02 11:35 SE 6 16.09 Fair CLR 31.6 20.8 53% 34 76.4 0.0
02 11:15 Calm 16.09 Fair CLR 31.1 20.6 54% 34 76.43 0.0
02 10:55 SE 6 16.09 Fair CLR 30.5 20 53% 32 76.43 0.0
02 10:35 Calm 16.09 Fair CLR 30.3 20.5 56% 33 76.4 0.0
02 10:15 Calm 16.09 Fair CLR 29.6 20.7 59% 32 76.43 0.0
02 09:55 Calm 16.09 Fair CLR 29.2 21.2 62% 32 76.4 0.0
02 09:35 Calm 16.09 Fair CLR 28 20.7 65% 30 76.4 0.0
02 09:15 Calm 16.09 Fair CLR 27.4 20.6 66% 29 76.4 0.0
02 08:55 Calm 16.09 Fair CLR 27.3 20.8 68% 29 76.4 0.0
02 08:35 Calm 16.09 Fair CLR 26.1 21.2 74% 28 76.4 0.0
02 08:15 Calm 16.09 Fair CLR 25.2 21.3 79% 26 76.4 0.0
02 07:55 Calm 16.09 Fair CLR 24.3 21.7 26 21.2 85% 24 76.4 0.0
02 07:35 Calm 16.09 Fair CLR 22.4 20.9 91% 76.38 0.0
02 07:15 Calm 16.09 Fair CLR 21.6 20.1 91% 76.38 0.0
02 06:55 Calm 16.09 Fair CLR 21.5 19.9 91% 76.38 0.0
02 06:35 Calm 16.09 Fair CLR 21.5 20 91% 76.38 0.0
02 06:15 Calm 16.09 Fair CLR 22 20.4 91% 76.35 0.0
02 05:55 Calm 16.09 Fair CLR 22.4 20.8 91% 76.33 0.0
02 05:35 Calm 16.09 Fair CLR 22.9 21.4 91% 76.33 0.0
02 05:15 Calm 16.09 Fair CLR 23.4 21.5 89% 76.33 0.0
02 04:55 Calm 16.09 Fair CLR 24 21.4 85% 24 76.33 0.0
02 04:35 Calm 16.09 Fair CLR 24.5 20.6 79% 25 76.33 0.0
02 04:15 NE 6 16.09 Fair CLR 24.8 20.1 75% 26 76.33 0.0
02 03:55 E 6 16.09 Fair CLR 25.6 19.4 69% 27 76.33 0.0
02 03:35 NW 9 16.09 Fair CLR 24.7 19.5 73% 26 76.33 0.0
02 03:15 E 7 16.09 Fair CLR 24.3 19.8 76% 25 76.33 0.0
02 02:55 NW 6 16.09 Fair CLR 24.3 20.5 79% 25 76.3 0.0
02 02:35 NE 11 16.09 Fair CLR 24.8 20 75% 26 76.3 0.0
02 02:15 Calm 16.09 Fair CLR 25.6 19.4 69% 27 76.28 0.0
02 01:55 W 7 16.09 Fair CLR 25.7 19.3 27.2 23.3 68% 27 76.28 0.0
02 01:35 W 7 16.09 Fair CLR 26.1 19.3 66% 27 76.28 0.0
02 01:15 NW 11 16.09 Fair CLR 26.2 19.7 68% 27 76.28 0.0
02 00:55 NW 13 16.09 Fair CLR 24.7 21.3 81% 25 76.28 0.0
02 00:35 Calm 16.09 Fair CLR 23.5 22 91% 76.3 0.0
02 00:15 Calm 16.09 Fair CLR 23.7 22.1 91% 76.28 0.0
01 23:55 Calm 16.09 Fair CLR 23.5 21.9 91% 76.25 0.0
01 23:35 Calm 16.09 Fair CLR 24 22.4 91% 24 76.23 0.0
01 23:15 Calm 16.09 Fair CLR 24 22.5 91% 23 76.23 0.0
01 22:55 Calm 16.09 Fair CLR 24.6 22.5 88% 25 76.23 0.0
01 22:35 Calm 16.09 Fair CLR 25.3 22.6 85% 26 76.23 0.0
01 22:15 Calm 16.09 Fair CLR 26.2 21.9 77% 28 76.23 0.0
01 21:55 Calm 16.09 Fair CLR 26.5 21.9 76% 28 76.2 0.0
01 21:35 Calm 16.09 Fair CLR 25.5 22.4 83% 27 76.2 0.0
01 21:15 Calm 16.09 Fair CLR 27 21.9 74% 29 76.17 0.0
01 20:55 Calm 16.09 Fair CLR 25.6 22.5 83% 27 76.15 0.0
01 20:35 Calm 16.09 Fair CLR 25.8 23.3 86% 27 76.12 0.0
01 20:15 Calm 16.09 Fair CLR 26.1 23.2 84% 28 76.1 0.0
01 19:55 Calm 16.09 Fair CLR 27.3 23.2 36.2 27.3 78% 30 76.1 0.0
01 19:35 Calm 16.09 Fair CLR 28.9 23 71% 33 76.1 0.0
01 19:15 Calm 16.09 Fair CLR 29.7 23.3 69% 34 76.1 0.0
01 18:55 Calm 16.09 Fair CLR 30 23.6 69% 35 76.12 0.0
01 18:35 SW 6 16.09 Fair CLR 32.5 20.8 50% 35 76.12 0.0
01 18:15 Calm 16.09 Fair CLR 34 21.2 47% 37 76.15 0.0
01 17:55 Calm 16.09 Fair CLR 33.8 21.1 47% 37 76.15 0.0
01 17:35 Calm 16.09 Fair CLR 33.2 20.5 47% 36 76.15 0.0
01 17:15 SW 9 16.09 Fair CLR 35 19.6 40% 37 76.15 0.0
01 16:55 SW 9 16.09 Fair CLR 35 20.4 42% 38 76.15 0.0
01 16:35 W 11 16.09 Fair CLR 34.8 19.8 41% 37 76.17 0.0
01 16:15 Calm 16.09 Fair CLR 35.8 19.5 38% 38 76.17 0.0
01 15:55 W 9 16.09 Fair CLR 35.6 20.5 41% 39 76.2 0.0
01 15:35 W 7 16.09 Fair CLR 35.7 19.3 38% 38 76.2 0.0
01 15:15 W 6 16.09 Fair CLR 35.3 20.3 41% 38 76.23 0.0
01 14:55 W 7 16.09 Fair CLR 35 20.4 42% 38 76.25 0.0
01 14:35 W 7 16.09 Fair CLR 35.3 20.1 41% 38 76.25 0.0
01 14:15 SW 11 16.09 Fair CLR 35 20.4 42% 38 76.25 0.0
01 13:55 SW 7 16.09 Fair CLR 34.4 20.5 35.2 23.1 44% 37 76.25 0.0
01 13:35 W 6 16.09 Fair CLR 34.8 20.3 43% 38 76.25 0.0
01 13:15 W 7 16.09 Fair CLR 34.9 20.9 44% 38 76.28 0.0
01 12:55 W 11 16.09 Fair CLR 34.8 20.7 44% 38 76.28 0.0
01 12:35 W 7 16.09 Fair CLR 34.2 20.5 45% 37 76.28 0.0
01 12:15 W 6 16.09 Fair CLR 33.7 20.4 46% 36 76.3 0.0
01 11:55 Calm 16.09 Fair CLR 33.6 19.8 44% 36 76.3 0.0
01 11:35 SW 6 16.09 Fair CLR 32.8 22 53% 37 76.33 0.0
01 11:15 S 6 16.09 Fair CLR 31.5 22.3 58% 35 76.35 0.0
01 10:55 SW 7 16.09 Fair CLR 30.4 21.7 60% 34 76.33 0.0
01 10:35 Calm 16.09 Fair CLR 29.4 21.6 63% 32 76.35 0.0
01 10:15 SW 6 16.09 Fair CLR 29.2 21.2 62% 32 76.35 0.0
01 09:55 SW 6 16.09 Fair CLR 29.7 21.7 62% 33 76.35 0.0
01 09:35 SW 6 16.09 Fair CLR 28.4 22 68% 31 76.35 0.0
01 09:15 SW 6 16.09 Fair CLR 26.9 22.2 76% 29 76.35 0.0
01 08:55 SW 6 16.09 Fair CLR 25.7 22.8 84% 27 76.38 0.0
01 08:35 SW 7 16.09 Fair CLR 24.4 22.8 91% 24 76.38 0.0
01 08:15 Calm 11.27 Fair CLR 23.7 22.1 91% 76.35 0.0
01 07:55 Calm 11.27 Fair CLR 23.1 21.5 24.1 20.2 91% 76.35 0.0
01 07:35 Calm 11.27 Fair CLR 23 21.5 91% 76.33 0.0
01 07:15 Calm 4.83 Fog/Mist CLR 22 20.5 91% 76.33 0.0
01 06:55 Calm 0.40 Fog OVC002 20.9 19.3 91% 76.33 0.0
01 06:35 Calm 0.40 Fog OVC002 20.7 19.2 91% 76.33 0.0
01 06:15 Calm 0.80 Fog OVC002 20.7 19.2 91% 76.33 0.0
01 05:55 Calm 0.80 Fog OVC002 21.6 20.1 91% 76.3 0.0
01 05:35 Calm 0.80 Fog OVC002 21.8 20.3 91% 76.3 0.0
01 05:15 Calm 0.80 Fog OVC002 21.5 20 91% 76.33 0.0
01 04:55 Calm 0.80 Fog OVC002 21.4 19.8 91% 76.33 0.0
01 04:35 Calm 0.80 Fog BKN002 21.4 19.9 91% 76.33 0.0
01 04:15 Calm 8.05 Fog/Mist CLR 22.8 21.3 91% 76.33 0.0
01 03:55 Calm 8.05 Fog/Mist CLR 23 21.5 91% 76.33 0.0
01 03:35 Calm 8.05 Fog/Mist CLR 23.2 21.6 91% 76.33 0.0
01 03:15 Calm 11.27 Fair CLR 23.4 21.9 91% 76.35 0.0
01 02:55 SW 6 11.27 Fair CLR 23.8 22.2 91% 76.38 0.0
01 02:35 Calm 11.27 Fair CLR 24 22.5 91% 23 76.38 0.0
01 02:15 Calm 11.27 Fair CLR 24 22.5 91% 23 76.35 0.0
01 01:55 Calm 8.05 Fog/Mist CLR 23.8 22.2 26 21.7 91% 76.38 0.0
01 01:35 Calm 8.05 Fog/Mist CLR 23.7 22.1 91% 76.4 0.0
01 01:15 Calm 8.05 Fog/Mist CLR 24 22.3 90% 24 76.4 0.0
01 00:55 Calm 11.27 Fair CLR 23.6 22.1 91% 76.43 0.0
01 00:35 Calm 8.05 Fog/Mist CLR 23 21.5 91% 76.43 0.0
01 00:15 Calm 6.44 Fog/Mist CLR 22.1 20.6 91% 76.43 0.0
31 23:55 Calm 1.21 Fog/Mist BKN002 21.8 20.2 91% 76.43 0.0
31 23:35 Calm 0.40 Fog OVC002 22.5 21 91% 76.43 0.0
Date Time (edt) Wind (kph) Vis. (km) Weather Sky Cond. Air Dwpt Max. Min. Relative Humidity Wind Chill (°C) Heat Index (°C) altimeter (cm) sea level (mb) 1 hr 3 hr 6 hr
6 hour
Temperature (ºC) Pressure Precipitation (cm)